sat.trackr.live / text

‹ back to catalog

HULIANWANG DIGUI-72

NORAD 65232 · 2025-178E

PAYLOAD ACTIVE UNKNOWN

§ Identity

Operator
Country
PRC
Launch date
2025-08-17
Launch site
TAISC
Launch vehicle
Mass (kg)
RCS (m²)

External: N2YO · Heavens-Above · Gunter

§ Orbital elements

Epoch: 2026-09-20T21:29:24.699264Z

Period
108.73 min
Inclination
86.5036°
Eccentricity
0.0001628
Mean motion
13.24413081 rev/d
Perigee alt
1,166.7 km
Apogee alt
1,169.1 km
Semi-major
7,546.0 km
B*
-1.1532e-5
RAAN
341.2205°
Arg perigee
107.4858°
Mean anomaly
252.6454°
Rev number
5,298

§ Raw data

HULIANWANG DIGUI-721 65232U 25178E   26263.89542476  .00000010  00000+0 -11532-4 0  99922 65232  86.5036 341.2205 0001628 107.4858 252.6454 13.24413081 52984

JSON: /api/v1/satellites/65232 · /tle

For live sub-satellite position, see the globe view (requires WebGL).

§ Visibility from observer

Set your observer location to see the next 7 days of passes ≥ 10°. The values pass through the URL so the page stays shareable.

No JS? Fill the form by hand. The geolocation button needs JavaScript.